Tracking 35048 objects as of 19-Aug-2026
HD Live streaming from Space Station
objects crossing your sky now

COSMOS 57 DEB


COSMOS 57 DEB is no longer on orbit


NORAD ID: 1156
Int'l Code: 1965-012BL
Launch date: February 22, 1965
Source: Commonwealth of Independent States (former USSR) (CIS)
Launch site: TYURATAM MISSILE AND SPACE COMPLEX (TTMTR)
Decay date: 1965-03-18

Note: This is SATELLITE DEBRIS
Your satellite tracking list
Your tracking list is empty




NASA's NSSDC Master Catalog

Two Line Element Set (TLE):
1 01156U 65012 BL 65067.07282160  .00291854 +16059-3 +00000-0 0  9990
2 01156 064.6619 250.8475 0235641 072.3104 290.2482 15.80529696002174
Source of the keplerian elements: AFSPC